Terminal Aerodrome Forecast
Issued by NWS Louisville, KY

Home | Current Version | Previous Version | Text Only | Print | Product List | Glossary On
Versions: 1 2 3 4 5 6 7 8 9 10 11 12 13 14 15 16 17 18 19
000
FTUS43 KLMK 221100
TAFSDF
TAF
KSDF 221128Z 2212/2318 VRB03KT 5SM BR FEW060
     FM221300 21006KT P6SM SCT050
     FM231200 21005KT P6SM SCT050 BKN150=

USA.gov is the U.S. government's official web portal to all federal, state and local government web resources and services.